Regional Weather Roundup
Issued by NWS Upton, NY

Current Version | Previous Version | Text Only | Print | Product List | Glossary On
Versions: 1 2 3 4 5 6 7 8 9 10 11 12 13 14 15 16 17 18 19 20 21 22 23 24 25 26 27
000
ASUS41 KOKX 241005
RWROKX

REGIONAL WEATHER ROUNDUP
NATIONAL WEATHER SERVICE NEW YORK NY
600 AM EDT FRI OCT 24 2014

NOTE: "FAIR" INDICATES FEW OR NO CLOUDS BELOW 12,000 FEET WITH NO
SIGNIFICANT WEATHER AND/OR OBSTRUCTIONS TO VISIBILITY.

NYZ071-072-176-178-NJZ106-104-241100-
NEW YORK CITY METRO AREA


CITY           SKY/WX    TMP DP  RH WIND       PRES   REMARKS
CENTRAL PARK   MOCLDY    51  42  71 VRB5      29.81S
LAGUARDIA APRT CLOUDY    51  43  74 NW14      29.79R
KENNEDY INTL   MOCLDY    51  42  71 NW10      29.79S
NEWARK/LIBERTY MOCLDY    50  43  77 W7        29.80S
BRNX BOT. GARD   N/A     50  43  76 W12       29.80R
TETERBORO      CLOUDY    50  42  74 NW6       29.79S
$$

NYZ177-179-078>081-241100-
LONG ISLAND NEW YORK

CITY           SKY/WX    TMP DP  RH WIND       PRES   REMARKS
FARMINGDALE    CLOUDY    51  45  79 NW7       29.78R
ISLIP          CLOUDY    51  45  79 NW16G22   29.74R
SHIRLEY        CLOUDY    51  45  79 NW9       29.76R
WESTHAMPTON    CLOUDY    52  46  80 NW13      29.75R
MONTAUK POINT    N/A     54  48  80 NW16G22   29.72R
$$

NYZ052-065-067-241100-
HUDSON VALLEY

CITY           SKY/WX    TMP DP  RH WIND       PRES   REMARKS
WHITE PLAINS   LGT RAIN  49  43  80 NW10      29.77R
NEWBURGH       NOT AVBL
MONTGOMERY     CLOUDY    50  42  74 NW10      29.78S
POUGHKEEPSIE   LGT RAIN  49  44  83 N3        29.80R
ALBANY         LGT RAIN  46  44  93 N5        29.83R FOG
$$

NJZ001-105-106-008-010-013-015-019>022-104-241100-
NEW JERSEY

CITY           SKY/WX    TMP DP  RH WIND       PRES   REMARKS
NEWARK/LIBERTY MOCLDY    50  43  77 W7        29.80S
TETERBORO      CLOUDY    50  42  74 NW6       29.79S
CALDWELL       MOCLDY    49  41  74 NW5       29.81S
MORRISTOWN     CLOUDY    52  43  71 NW7       29.81S
SOMERVILLE     CLOUDY    53  43  68 NW5       29.81S
SUSSEX         CLOUDY    52  43  71 N7        29.82R
ANDOVER          N/A     50  43  77 N8        29.82S
TRENTON        CLOUDY    53  44  71 NW5       29.82S
MILLVILLE      CLEAR     45  43  93 W7        29.84R
ATLANTIC CITY  PTCLDY    46  44  93 NW3       29.83R
WRIGHTSTOWN    PTCLDY    51  45  80 NW6       29.80F
TOMS RIVER     PTCLDY    48  45  87 NW5       29.82S
BELMAR         PTCLDY    48  39  71 W7        29.80F
$$

PAZ047>061-062-071-241100-
EASTERN PENNSYLVANIA

CITY           SKY/WX    TMP DP  RH WIND       PRES   REMARKS
PHILADELPHIA   MOCLDY    56  44  64 N12       29.85S
ALLENTOWN      CLOUDY    54  43  66 NW9G20    29.84F
SCRANTON       CLOUDY    51  42  71 NW12      29.89R
$$

CTZ002-004>006-009-010-012-RIZ004-006-007-MAZ004-011-015-241100-
SOUTHERN NEW ENGLAND
 IN CT

CITY           SKY/WX    TMP DP  RH WIND       PRES   REMARKS
BRADLEY INTL   CLOUDY    50  43  77 NW10      29.73R
HARTFORD       CLOUDY    50  43  77 VRB6      29.74R
DANBURY        LGT RAIN  49  41  74 NW5       29.78R
WTRBRY/OXFORD  CLOUDY    48  39  71 NW6       29.75R
BRIDGEPORT     CLOUDY    51  44  77 NW9G17    29.76R
MERIDEN        CLOUDY    50  42  74 NW13G22   29.74R
NEW HAVEN      CLOUDY    52  43  71 NW8       29.74R
CHESTER        PTSUNNY   48  45  87 NW8       29.73R
GROTON         CLOUDY    50  46  86 N13       29.70R
WILLIMANTIC    CLOUDY    50  45  83 N10       29.72R

 IN RI

CITY           SKY/WX    TMP DP  RH WIND       PRES   REMARKS
PROVIDENCE     CLOUDY    51  47  86 N12G22    29.68R
BLOCK ISLAND   CLOUDY    54  46  76 N13G24    29.68R
WESTERLY       CLOUDY    52  47  83 NW10      29.70R

 IN MA

CITY           SKY/WX    TMP DP  RH WIND       PRES   REMARKS
BOSTON         CLOUDY    48  48 100 NW14      29.67S
WORCESTER      LGT RAIN  46  44  93 NW10      29.70R
WESTFIELD      LGT RAIN  49  42  77 N12G20    29.75R
PROVINCETOWN   CLOUDY    52  -2  11 N23G31    29.62S
NANTUCKET      CLOUDY    53  50  89 N24G35    29.58R
$$

ANZ330-335-338-340-345-350-353-355-241100-
COASTAL MARINE OBSERVATIONS


STATION/POSITION TIME  SKY/WX   TEMP    WIND        PRES    VSBY  WAVE
                                AIR SEA DIR/SP/G                  HT/PER
                 (UTC)          (F)     (DEG/KT/KT) (MB)    (MI)  (FT/S)
NY HARB ENTRANCE NOT AVBL
4S FIRE IS       1000               63                N/A           3/ 9
20S FIRE ISLAND  1000            55 63  330/ 21/ 25 1007.1          6/ 5
23SW MTP         1000                                 N/A           5/ 5
HUDSON CANYON    1000            57 66  330/ 21/ 27 1006.3          9/ 7
EXECUTION ROCKS  1000            53 62  290/ 12/ 17   N/A
WESTERN LI SOUND 1000            53     310/ 10/ 14   N/A           1
CENTRAL LI SOUND 0900            53 63  310/ 14/ 17   N/A           2/ 3
EASTERN LI SOUND 0900            54 63  330/ 16/ 21   N/A
ROBBINS REEF     1000            51     290/ 11/ 13 1007.7
$$


>>>>>>>>>>>>>>>>>>>>>>>>>>>> KEY <<<<<<<<<<<<<<<<<<<<<<<<<<<
>                                                          <
>     SKY/WX - SKY CONDITION/PRESENT WEATHER               <
>     TMP    - TEMPERATURE IN FAHRENHEIT                   <
>     DP     - DEWPOINT IN FAHRENHEIT                      <
>     RH     - RELATIVE HUMIDITY IN PERCENT                <
>     WIND   - DIRECTION AND SPEED IN MPH                  <
>     PRES   - MEAN SEA LEVEL PRESSURE IN INCHES OF HG     <
>     WCI    - WIND CHILL INDEX                            <
>     VSB    - VISIBILITY IN MILES                         <
>     HX     - HEAT INDEX                                  <
>     TC     - TEMPERATURE IN CELSIUS                      <
>     VRB    - VARIABLE WIND DIRECTION                     <
>                                                          <
>>>>>>>>>>>>>>>>>>>>>>>>>>>> KEY <<<<<<<<<<<<<<<<<<<<<<<<<<<





USA.gov is the U.S. government's official web portal to all federal, state and local government web resources and services.